Regional Weather Roundup
Issued by NWS

Home | Current Version | Previous Version | Text Only | Print | Product List | Glossary On
Versions: 1 2 3 4 5 6 7 8 9 10 11 12 13 14 15 16 17 18 19 20 21 22 23 24 25 26 27 28 29 30 31 32 33 34 35 36 37 38 39 40 41 42 43 44 45 46 47 48 49 50
000
ASUS43 KLOT 231309
RWRIL

ILLINOIS REGIONAL WEATHER ROUNDUP
NATIONAL WEATHER SERVICE CHICAGO/ROMEOVILLE IL
800 AM CDT SUN JUL 23 2017

NOTE: "FAIR" INDICATES FEW OR NO CLOUDS BELOW 12,000 FEET WITH NO
SIGNIFICANT WEATHER AND/OR OBSTRUCTIONS TO VISIBILITY.

* THESE STATIONS ARE NOT UNDER NWS QUALITY CONTROL. THEY ALSO MAY NOT
  REPORT WEATHER SUCH AS PRECIPITATION OR FOG.

ILZ001-002-007-009-015-016-024-231400-
NORTHWEST ILLINOIS

CITY           SKY/WX    TMP DP  RH WIND       PRES   REMARKS
MOLINE         MOSUNNY   77  73  87 W10       29.85R
STERLING*      MOSUNNY   76  74  93 W7        29.84S
SAVANNA*       PTSUNNY   74  73  98 CALM      29.84R
$$

ILZ003-004-008-010-011-017-018-231400-
NORTH CENTRAL ILLINOIS

CITY           SKY/WX    TMP DP  RH WIND       PRES   REMARKS
ROCKFORD       MOSUNNY   78  71  79 W5        29.83R HX  80
FREEPORT*      SUNNY     73  70  91 W5        29.85S
ROCHELLE*      CLOUDY    74  73  95 W6        29.84S
DE KALB*       MOSUNNY   75  73  93 NW7       29.84S
PERU*          CLOUDY   N/A N/A N/A W8        29.85R
$$

ILZ005-006-012>014-019>023-231400-
NORTHEAST ILLINOIS

CITY           SKY/WX    TMP DP  RH WIND       PRES   REMARKS
CHICAGO-OHARE  PTSUNNY   76  71  85 SW6       29.81S
CHICAGO-MIDWAY PTSUNNY   78  71  79 W6        29.80S HX  80
AURORA         CLOUDY    75  75 100 NW7       29.83R FOG
LANSING*       MOSUNNY   76  70  83 SW5       29.82R
JOLIET*        PTSUNNY   78  76  92 SW3       29.83R HX  81
WAUKEGAN       CLOUDY    75  73  93 NW3       29.80S
DUPAGE AIRPORT PTSUNNY   75  75 100 W5        29.82R FOG
WHEELING       MOSUNNY   75  73  93 CALM      29.82S
MORRIS*        CLOUDY    76  74  93 W7        29.81S
ROMEOVILLE*    PTSUNNY   75  71  86 SW5       29.82S
NORTHERLY ISL    N/A     77  68  73 CALM        N/A
$$

LMZ740>746-231400-
SOUTHERN LAKE MICHIGAN

STATION/POSITION SKY/WX   TEMP    WIND        PRES    VSBY  WAVE
                          AIR SEA DIR/SP/G                  HT/PER
                          (F)     (DEG/KT/KT) (MB)    (MI)  (FT/S)
SOUTHERN BUOY              69 70   70/  8/ 10 1009.0          0
WILMETTE HARBOR            74 74  220/  4/  6   N/A           0
HARRISON CRIB              76     210/  3/  4   N/A
BURNHAM HARBOR             78                   N/A
CALUMET HARBOR             76     190/  3/  4 1009.1R
BURNS HARBOR               74     290/  1/  3 1010.2R
MICHIGAN CITY              75     220/  1/  1   N/A
MICHIGAN CITY 6N           74 75  200/  2/  2   N/A           0
ST. JOSEPH                 74 74  170/  2/  2 1009.0R         0
$$

ILZ025>027-034>036-040-047-049-050-058-095>099-231400-
WEST-CENTRAL ILLINOIS

CITY           SKY/WX    TMP DP  RH WIND       PRES   REMARKS
QUINCY         CLOUDY    75  67  76 NW8       29.87R
GALESBURG*     MOSUNNY   77  74  89 W7        29.87F
MACOMB*        MOSUNNY   75  73  96 W6        29.88F
JACKSONVILLE*  CLOUDY    73  66  78 NW6       29.84F
PITTSFIELD*    PTSUNNY   73  69  88 NW6       29.87R
$$

ILZ028>032-037-038-041>044-048-051>054-059>061-231400-
CENTRAL ILLINOIS

CITY           SKY/WX    TMP DP  RH WIND       PRES   REMARKS
PONTIAC        CLOUDY    77  76  98 W8        29.85S
BLOOMINGTON    CLOUDY    76  74  93 W9        29.86F
DECATUR        CLOUDY    76  64  66 NW12      29.84F
PEORIA         CLOUDY    78  76  93 W9        29.84F HX  81
LACON*         CLOUDY    76  74  93 W3        29.83S
LINCOLN*       CLOUDY    78  73  83 W5        29.85F HX  81
SPRINGFIELD    CLOUDY    76  67  73 NW7       29.84F
TAYLORVILLE    CLOUDY    69  67  94 SW6       29.83R
$$

ILZ033-039-045-046-055>057-062-063-231400-
EAST-CENTRAL ILLINOIS

CITY           SKY/WX    TMP DP  RH WIND       PRES   REMARKS
CHAMPAIGN      CLOUDY    77  75  93 W8        29.86S
RANTOUL*       CLOUDY    78  77  95 W6        29.85F HX  82
MATTOON        LGT RAIN  70  67  90 NW12      29.86F
PARIS*         TSTM      76  75  98 W13       29.89R
$$

ILZ079-100>102-231400-
SOUTHWEST ILLINOIS

CITY           SKY/WX    TMP DP  RH WIND       PRES   REMARKS
ALTON          CLOUDY    70  66  88 S12       29.82R
BELLEVILLE     CLOUDY    73  67  80 S5        29.85R
CAHOKIA*       CLOUDY    75  64  68 SW6       29.85R
SPARTA*        CLOUDY    74  67  79 SW5       29.88R
$$

ILZ064>066-069>071-074>076-080>082-084>086-088>090-092>094-231400-
SOUTH-CENTRAL ILLINOIS

CITY           SKY/WX    TMP DP  RH WIND       PRES   REMARKS
CARBONDALE     PTSUNNY   74  71  91 S7        29.88R
CAIRO*         CLOUDY    78  67  69 N5        29.90F HX  80
EFFINGHAM*     LGT RAIN  70  67  89 N10G18    29.80F
MARION         PTSUNNY   75  73  94 SW5       29.90R
MT. VERNON     CLOUDY    72  70  93 CALM      29.87R
CENTRALIA*     CLOUDY    72  70  95 SE5       29.83S
SALEM*         CLOUDY    72  68  86 CALM      29.83S
METROPOLIS*    CLOUDY    76  69  78 CALM      29.92S
$$

ILZ067-068-072-073-078-083-087-091-231400-
SOUTHEAST ILLINOIS

CITY           SKY/WX    TMP DP  RH WIND       PRES   REMARKS
LAWRENCEVILLE  LGT RAIN  73  32  22 N20G30    29.84F
FLORA*         CLOUDY    73  69  89 S5        29.86R
FAIRFIELD*     CLOUDY    71  71 100 CALM      29.86S
HARRISBURG*    CLOUDY    74  71  92 SE3       29.90F
ROBINSON*      RAIN      70  67  92 N16       29.86F
CARMI*         CLOUDY    71  71  99 SE5       29.89S
$$

ABBREVIATIONS USED IN REMARKS
   TC - TEMPERATURE IN CELSIUS
  WCI - WIND CHILL INDEX
   HX - HEAT INDEX
  VSB - VISIBILITY
$$





USA.gov is the U.S. government's official web portal to all federal, state and local government web resources and services.